GW4674 Weather Reports


Display with metric or nautical units.
time (UTC)temp
F
wind
direction
speed
MPH
gust
MPH
rain 1hr
in
rain 24hr
in
rain mn
in
humidity
%
barometer
mb
20260505032004 53 148 2.0 4.0 0.00 0.00 0.00 78 1017.4
20260505031501 53 151 2.0 3.0 0.00 0.00 0.00 78 1017.3
20260505030958 54 336 0.0 4.0 0.00 0.00 0.00 77 1017.3
20260505030454 53 68 2.0 4.0 0.00 0.00 0.00 77 1017.4
20260505025949 54 211 4.0 5.0 0.00 0.00 0.00 76 1017.4
20260505025447 54 123 2.0 5.0 0.00 0.00 0.00 76 1017.5
20260505024945 54 126 0.0 3.0 0.00 0.00 0.00 76 1017.5
20260505024442 54 205 2.0 4.0 0.00 0.00 0.00 76 1017.5
20260505023940 54 81 0.0 4.0 0.00 0.00 0.00 76 1017.4
20260505023436 54 156 2.0 3.0 0.00 0.00 0.00 77 1017.4
20260505022934 54 171 4.0 4.0 0.00 0.00 0.00 76 1017.5
20260505022431 54 222 3.0 4.0 0.00 0.00 0.00 75 1017.4
20260505021928 55 97 2.0 5.0 0.00 0.00 0.00 75 1017.4
20260505021425 55 131 0.0 4.0 0.00 0.00 0.00 75 1017.5
20260505020920 55 193 2.0 4.0 0.00 0.00 0.00 75 1017.5
20260505020416 54 160 2.0 3.0 0.00 0.00 0.00 75 1017.5
20260505015913 55 250 2.0 6.0 0.00 0.00 0.00 75 1017.4
20260505015410 55 164 2.0 4.0 0.00 0.00 0.00 75 1017.4
20260505014907 55 75 1.0 3.0 0.00 0.00 0.00 74 1017.4
20260505014404 55 184 0.0 3.0 0.00 0.00 0.00 74 1017.4
20260505013901 55 81 2.0 4.0 0.00 0.00 0.00 74 1017.3
20260505013358 55 67 2.0 6.0 0.00 0.00 0.00 74 1017.3
20260505012856 55 229 4.0 4.0 0.00 0.00 0.00 73 1017.3
20260505012354 55 149 0.0 4.0 0.00 0.00 0.00 73 1017.2
20260505011850 55 35 0.0 2.0 0.00 0.00 0.00 72 1017.2
20260505011347 55 6 1.0 4.0 0.00 0.00 0.00 72 1017.1
20260505010843 55 13 2.0 2.0 0.00 0.00 0.00 72 1017.2
20260505010338 56 183 3.0 6.0 0.00 0.00 0.00 70 1017.0
20260505005835 56 156 3.0 4.0 0.00 0.00 0.00 70 1017.0
20260505005332 56 174 2.0 3.0 0.00 0.00 0.00 70 1017.0
20260505004830 56 101 0.0 5.0 0.00 0.00 0.00 69 1016.9
20260505004326 56 220 3.0 4.0 0.00 0.00 0.00 68 1016.7
20260505003823 56 182 2.0 4.0 0.00 0.00 0.00 67 1016.5
20260505003320 56 212 2.0 3.0 0.00 0.00 0.00 66 1016.5
20260505002816 56 198 2.0 3.0 0.00 0.00 0.00 66 1016.5
20260505002314 57 164 3.0 4.0 0.00 0.00 0.00 65 1016.3
20260505001812 57 196 2.0 4.0 0.00 0.00 0.00 64 1016.3
20260505001308 58 203 3.0 3.0 0.00 0.00 0.00 63 1016.5
20260505000806 58 226 5.0 6.0 0.00 0.00 0.00 62 1016.1
20260505000303 58 286 2.0 4.0 0.00 0.00 0.00 62 1016.2
20260504235800 58 146 2.0 4.0 0.00 0.00 0.00 60 1016.0
20260504235256 59 104 2.0 9.0 0.00 0.00 0.00 60 1016.1
20260504234753 59 248 2.0 6.0 0.00 0.00 0.00 59 1015.8
20260504234251 59 230 2.0 4.0 0.00 0.00 0.00 57 1015.8
20260504233747 60 201 2.0 5.0 0.00 0.00 0.00 56 1015.6
20260504233243 60 347 2.0 4.0 0.00 0.00 0.00 56 1015.4
20260504232740 61 112 0.0 6.0 0.00 0.00 0.00 55 1015.4
20260504232237 61 194 2.0 9.0 0.00 0.00 0.00 54 1015.4
20260504231734 61 216 2.0 5.0 0.00 0.00 0.00 53 1015.3
20260504231230 62 225 4.0 6.0 0.00 0.00 0.00 52 1015.3
20260504230726 62 162 2.0 9.0 0.00 0.00 0.00 51 1015.4
20260504230225 63 267 1.0 6.0 0.00 0.00 0.00 50 1015.4
20260504225723 63 225 2.0 8.0 0.00 0.00 0.00 49 1015.3
20260504225219 63 230 3.0 4.0 0.00 0.00 0.00 50 1015.3
20260504224716 63 185 6.0 7.0 0.00 0.00 0.00 47 1015.3
20260504224214 64 193 6.0 9.0 0.00 0.00 0.00 47 1015.2
20260504223710 64 57 3.0 9.0 0.00 0.00 0.00 47 1015.2
20260504223205 64 29 4.0 10.0 0.00 0.00 0.00 46 1015.1
20260504222703 65 229 4.0 8.0 0.00 0.00 0.00 46 1015.3
20260504222159 65 148 2.0 6.0 0.00 0.00 0.00 45 1015.2
20260504221657 65 183 4.0 6.0 0.00 0.00 0.00 45 1015.2
20260504221154 66 204 3.0 9.0 0.00 0.00 0.00 45 1015.2
20260504220650 66 203 2.0 5.0 0.00 0.00 0.00 45 1015.3
20260504220148 67 17 2.0 6.0 0.00 0.00 0.00 42 1015.4
20260504215644 67 353 2.0 6.0 0.00 0.00 0.00 44 1015.4
20260504215142 67 200 5.0 7.0 0.00 0.00 0.00 43 1015.4
20260504214637 68 140 2.0 6.0 0.00 0.00 0.00 42 1015.7
20260504214134 68 198 0.0 9.0 0.00 0.00 0.00 41 1015.4
20260504213630 68 212 3.0 8.0 0.00 0.00 0.00 43 1015.6
20260504213127 69 223 1.0 4.0 0.00 0.00 0.00 40 1015.6
20260504212624 69 178 2.0 9.0 0.00 0.00 0.00 41 1015.4
20260504212120 68 261 3.0 5.0 0.00 0.00 0.00 41 1015.4
20260504211618 69 240 2.0 7.0 0.00 0.00 0.00 40 1015.4
20260504211114 69 79 2.0 7.0 0.00 0.00 0.00 41 1015.3
20260504210612 70 305 1.0 10.0 0.00 0.00 0.00 39 1015.2
20260504210108 72 178 4.0 5.0 0.00 0.00 0.00 33 1015.1
20260504205606 73 334 2.0 6.0 0.00 0.00 0.00 29 1015.2
20260504205104 72 300 2.0 7.0 0.00 0.00 0.00 30 1015.3
20260504204601 71 349 2.0 13.0 0.00 0.00 0.00 32 1015.6
20260504204100 72 274 6.0 8.0 0.00 0.00 0.00 30 1015.3
20260504203558 72 115 1.0 6.0 0.00 0.00 0.00 30 1015.1
20260504203055 72 217 3.0 8.0 0.00 0.00 0.00 31 1015.3
20260504202550 71 310 3.0 9.0 0.00 0.00 0.00 31 1015.4
20260504202048 71 245 8.0 9.0 0.00 0.00 0.00 31 1015.7
20260504201544 72 274 2.0 6.0 0.00 0.00 0.00 31 1015.6
20260504201043 73 341 3.0 6.0 0.00 0.00 0.00 30 1015.6
20260504200538 72 313 5.0 8.0 0.00 0.00 0.00 30 1015.7
20260504200036 74 251 4.0 6.0 0.00 0.00 0.00 31 1015.7
20260504195532 72 234 2.0 7.0 0.00 0.00 0.00 30 1015.9
20260504195028 73 267 5.0 7.0 0.00 0.00 0.00 28 1015.7
20260504194525 73 293 2.0 8.0 0.00 0.00 0.00 30 1015.6
20260504194020 72 270 5.0 7.0 0.00 0.00 0.00 30 1015.8
20260504193517 72 332 5.0 6.0 0.00 0.00 0.00 30 1015.6
20260504193017 71 300 4.0 9.0 0.00 0.00 0.00 31 1015.9
20260504192514 72 181 0.0 8.0 0.00 0.00 0.00 30 1015.7
20260504192012 71 274 2.0 5.0 0.00 0.00 0.00 33 1015.8
20260504191509 71 69 3.0 9.0 0.00 0.00 0.00 32 1015.8
20260504191005 71 304 2.0 9.0 0.00 0.00 0.00 35 1016.0
20260504190501 73 41 1.0 7.0 0.00 0.00 0.00 31 1016.0
20260504185957 73 315 1.0 6.0 0.00 0.00 0.00 30 1016.0
20260504185455 72 286 2.0 7.0 0.00 0.00 0.00 31 1016.1
20260504184951 71 259 4.0 8.0 0.00 0.00 0.00 31 1016.0
20260504184447 72 312 5.0 6.0 0.00 0.00 0.00 29 1016.0
20260504183942 71 269 5.0 6.0 0.00 0.00 0.00 31 1016.4
20260504183440 70 352 4.0 8.0 0.00 0.00 0.00 32 1016.4
20260504182938 71 174 2.0 7.0 0.00 0.00 0.00 30 1016.3
20260504182434 69 240 2.0 8.0 0.00 0.00 0.00 32 1016.4
20260504181932 71 214 8.0 10.0 0.00 0.00 0.00 30 1016.2
20260504181429 72 294 3.0 7.0 0.00 0.00 0.00 32 1016.6
20260504180927 70 271 2.0 8.0 0.00 0.00 0.00 33 1016.7
20260504180426 71 283 4.0 6.0 0.00 0.00 0.00 29 1016.8
20260504175924 69 242 7.0 9.0 0.00 0.00 0.00 34 1016.6
20260504175420 70 272 0.0 5.0 0.00 0.00 0.00 32 1016.7
20260504174918 72 265 2.0 6.0 0.00 0.00 0.00 31 1016.8
20260504174415 68 209 3.0 6.0 0.00 0.00 0.00 32 1016.7
20260504173913 69 312 3.0 9.0 0.00 0.00 0.00 31 1016.9
20260504173409 69 156 3.0 7.0 0.00 0.00 0.00 34 1017.0
20260504172906 69 320 3.0 7.0 0.00 0.00 0.00 31 1016.9
20260504172402 68 324 4.0 9.0 0.00 0.00 0.00 32 1017.0
20260504171859 67 289 3.0 11.0 0.00 0.00 0.00 33 1017.2
20260504171356 67 337 5.0 7.0 0.00 0.00 0.00 33 1017.2
20260504170853 67 295 2.0 7.0 0.00 0.00 0.00 33 1017.0
20260504170350 69 204 3.0 4.0 0.00 0.00 0.00 33 1017.0
20260504160308 66 330 2.0 6.0 0.00 0.00 0.00 36 1017.7
20260504150733 64 264 3.0 6.0 0.00 0.00 0.00 35 1018.4
20260504150230 64 255 1.0 4.0 0.00 0.00 0.00 35 1018.6
20260504141159 60 231 4.0 10.0 0.00 0.00 0.00 36 1018.6
20260504140656 60 240 2.0 8.0 0.00 0.00 0.00 38 1018.7
20260504140152 60 327 4.0 5.0 0.00 0.00 0.00 36 1018.8
20260504130620 57 235 4.0 8.0 0.00 0.00 0.00 41 1019.2
20260504130117 57 282 4.0 5.0 0.00 0.00 0.00 41 1019.3
20260504110508 47 226 2.0 3.0 0.00 0.00 0.00 59 1019.5
20260504100430 46 207 2.0 4.0 0.00 0.00 0.00 58 1019.1
20260504081823 46 217 2.0 4.0 0.00 0.00 0.00 58 1018.7
20260504081320 45 208 2.0 3.0 0.00 0.00 0.00 58 1018.8
20260504080816 45 197 2.0 3.0 0.00 0.00 0.00 59 1018.8
20260504080313 46 212 2.0 3.0 0.00 0.00 0.00 59 1018.7
20260504070235 46 214 2.0 3.0 0.00 0.00 0.00 57 1018.5
20260504060156 47 198 2.0 2.0 0.00 0.00 0.00 51 1018.5
20260504050623 42 181 1.0 3.0 0.00 0.00 0.00 70 1018.3
20260504050120 44 274 1.0 2.0 0.00 0.00 0.00 68 1018.3
20260504045617 46 221 1.0 4.0 0.00 0.00 0.00 64 1018.4
20260504045112 46 201 3.0 3.0 0.00 0.00 0.00 58 1018.3
20260504044610 45 184 1.0 3.0 0.00 0.00 0.00 58 1018.2
20260504044106 44 173 3.0 4.0 0.00 0.00 0.00 60 1018.2
20260504043604 42 185 2.0 3.0 0.00 0.00 0.00 68 1018.3
20260504043102 43 185 1.0 2.0 0.00 0.00 0.00 68 1018.2
20260504042559 47 147 0.0 3.0 0.00 0.00 0.00 50 1018.2
20260504042055 45 191 2.0 3.0 0.00 0.00 0.00 56 1018.1
20260504041551 46 152 0.0 2.0 0.00 0.00 0.00 60 1018.1
20260504041048 47 166 1.0 2.0 0.00 0.00 0.00 62 1018.2
20260504040545 47 201 2.0 3.0 0.00 0.00 0.00 52 1018.2
20260504040042 45 177 2.0 4.0 0.00 0.00 0.00 58 1018.1
20260504035538 45 164 2.0 4.0 0.00 0.00 0.00 57 1018.2
20260504035035 44 189 2.0 4.0 0.00 0.00 0.00 65 1018.1
20260504034533 44 199 1.0 3.0 0.00 0.00 0.00 64 1018.1
20260504034029 45 151 1.0 2.0 0.00 0.00 0.00 61 1018.1
20260504033528 45 178 2.0 3.0 0.00 0.00 0.00 54 1018.2
20260504033025 45 150 1.0 4.0 0.00 0.00 0.00 61 1018.0
20260504032521 46 199 2.0 2.0 0.00 0.00 0.00 61 1018.2